M I D A S
Marine Information and Data Acquisition System
Tripno 1897 of the Zeeleeuw from 2010-06-09 06:11:34 to 2010-06-09 17:16:18
Back to CruiseResearch ActivitiesStationsMapUnderway DataData graphs

EquipmentUnitsComments
TimeDGPSUTC
LatitudeDGPSDM.mWGS84
LongitudeDGPSDM.mWGS84
SpeedMeteo Stationm/sRelative wind speed
DirectionMeteo StationdegRelative wind direction
TemperatureMeteo Stationdeg CelciusAir temperature
PressureMeteo StationPaAtmospheric pressure
HumidityMeteo Station%Relative humidity
Missing or incorrect values are displayed as -999
Metereological data collected by the RV Zeeleeuw from 2010-06-09 06:11:27 to 2010-06-09 17:31:48
                                                                                    Next 1000 lines
Time Latitude Longitude Speed Direction Temperature Pressure Humidity
2010-06-09 06:11:37 51°13.663 2°55.957 1 283 16 100410 47
2010-06-09 06:11:42 51°13.663 2°55.957 1.3 336 16 100410 47
2010-06-09 06:11:47 51°13.663 2°55.957 1.2 284 16 100410 45
2010-06-09 06:11:52 51°13.663 2°55.957 1.2 337 16 100400 47
2010-06-09 06:11:57 51°13.663 2°55.957 1.2 280 16 100400 47
2010-06-09 06:12:02 51°13.663 2°55.958 1.1 335 16 100400 47
2010-06-09 06:12:07 51°13.663 2°55.958 1.4 282 16 100400 47
2010-06-09 06:12:12 51°13.662 2°55.958 1.5 337 16 100410 45
2010-06-09 06:12:17 51°13.662 2°55.959 1.6 278 16 100410 45
2010-06-09 06:12:22 51°13.662 2°55.959 1.6 338 16 100410 46
2010-06-09 06:12:27 51°13.662 2°55.959 2 282 16 100410 46
2010-06-09 06:12:32 51°13.662 2°55.959 1.5 340 16 100410 46
2010-06-09 06:12:37 51°13.662 2°55.959 1.2 279 16 100410 44
2010-06-09 06:12:42 51°13.662 2°55.959 1 343 16 100400 44
2010-06-09 06:12:47 51°13.662 2°55.959 1.2 281 16 100400 44
2010-06-09 06:12:52 51°13.662 2°55.959 2.1 331 16 100410 44
2010-06-09 06:12:57 51°13.662 2°55.959 1.7 281 16 100410 44
2010-06-09 06:13:02 51°13.662 2°55.959 2.3 331 16 100410 44
2010-06-09 06:13:06 51°13.662 2°55.959 1.8 283 16 100410 44
2010-06-09 06:13:12 51°13.662 2°55.959 1.7 330 16 100410 44
2010-06-09 06:13:17 51°13.662 2°55.96 1 286 16 100400 47
2010-06-09 06:13:22 51°13.662 2°55.959 1 334 16 100400 47
2010-06-09 06:13:27 51°13.662 2°55.959 1 280 16 100400 47
2010-06-09 06:13:32 51°13.662 2°55.959 0.8 342 16 100400 45
2010-06-09 06:13:37 51°13.662 2°55.96 0.3 282 16 100400 45
2010-06-09 06:13:42 51°13.662 2°55.96 0.7 338 16 100400 45
2010-06-09 06:13:47 51°13.662 2°55.96 0.8 277 16 100400 45
2010-06-09 06:13:52 51°13.662 2°55.959 1.3 342 16 100410 45
2010-06-09 06:13:57 51°13.662 2°55.96 1.4 277 16 100410 45
2010-06-09 06:14:02 51°13.661 2°55.96 1.2 347 16 100410 43
2010-06-09 06:14:07 51°13.661 2°55.959 1.3 346 16 100410 43
2010-06-09 06:14:12 51°13.661 2°55.959 1.2 345 16 100410 43
2010-06-09 06:14:17 51°13.661 2°55.959 1.1 282 16 100400 47
2010-06-09 06:14:22 51°13.661 2°55.959 1.1 344 16 100410 45
2010-06-09 06:14:26 51°13.661 2°55.959 1.1 348 16 100410 45
2010-06-09 06:14:32 51°13.661 2°55.959 1.3 347 16 100410 45
2010-06-09 06:14:37 51°13.661 2°55.959 1.5 276 16 100400 48
2010-06-09 06:14:42 51°13.661 2°55.959 1.3 344 16 100410 47
2010-06-09 06:14:47 51°13.661 2°55.959 0.6 352 16 100410 47
2010-06-09 06:14:52 51°13.662 2°55.956 0.5 347 16 100410 47
2010-06-09 06:14:57 51°13.663 2°55.953 0.2 355 16 100410 43
2010-06-09 06:15:02 51°13.664 2°55.947 0.1 10 16 100410 45
2010-06-09 06:15:08 51°13.666 2°55.94 -999 17 16 100410 45
2010-06-09 06:15:13 51°13.668 2°55.932 -999 17 16 100410 45
2010-06-09 06:15:19 51°13.67 2°55.923 -999 17 16 100410 45
2010-06-09 06:15:25 51°13.673 2°55.914 -999 17 16 100400 45
2010-06-09 06:15:30 51°13.674 2°55.905 -999 18 16 100400 45
2010-06-09 06:15:36 51°13.676 2°55.895 -999 18 16 100410 45
2010-06-09 06:15:41 51°13.678 2°55.885 0.1 31 16 100410 45
2010-06-09 06:15:46 51°13.679 2°55.875 0.1 32 16 100410 45
2010-06-09 06:15:51 51°13.68 2°55.866 0.1 33 16 100400 46
2010-06-09 06:15:56 51°13.682 2°55.857 0.1 34 16 100410 46
2010-06-09 06:16:01 51°13.683 2°55.848 0.1 35 16 100410 46
2010-06-09 06:16:06 51°13.684 2°55.839 -999 36 16 100400 45
2010-06-09 06:16:10 51°13.685 2°55.833 -999 38 16 100400 45
2010-06-09 06:16:15 51°13.686 2°55.824 -999 37 16 100410 45
2010-06-09 06:16:20 51°13.686 2°55.816 -999 28 16 100410 45
2010-06-09 06:16:25 51°13.687 2°55.809 -999 29 16 100410 46
2010-06-09 06:16:30 51°13.687 2°55.801 -999 33 16 100410 46
2010-06-09 06:16:35 51°13.687 2°55.794 -999 31 16 100400 45
2010-06-09 06:16:40 51°13.688 2°55.788 -999 28 16 100400 45
2010-06-09 06:16:45 51°13.688 2°55.783 0.1 28 16 100400 45
2010-06-09 06:16:49 51°13.688 2°55.78 0.2 80 16 100400 44
2010-06-09 06:16:54 51°13.688 2°55.777 0.7 40 16 100400 44
2010-06-09 06:16:59 51°13.688 2°55.774 0.3 26 16 100410 45
2010-06-09 06:17:04 51°13.688 2°55.773 0.3 20 16 100410 45
2010-06-09 06:17:09 51°13.689 2°55.771 0.1 20 16 100410 45
2010-06-09 06:17:14 51°13.689 2°55.77 0.1 20 16 100410 45
2010-06-09 06:17:18 51°13.69 2°55.77 -999 15 16 100400 45
2010-06-09 06:17:23 51°13.69 2°55.769 -999 24 16 100410 45
2010-06-09 06:17:28 51°13.691 2°55.769 0.7 26 16 100410 45
2010-06-09 06:17:33 51°13.692 2°55.769 0.5 22 16 100400 45
2010-06-09 06:17:38 51°13.692 2°55.768 0.1 21 16 100400 45
2010-06-09 06:17:42 51°13.692 2°55.767 0.2 29 16 100400 45
2010-06-09 06:17:47 51°13.693 2°55.766 0.1 79 16 100410 45
2010-06-09 06:17:52 51°13.693 2°55.765 0.7 36 16 100410 46
2010-06-09 06:17:57 51°13.692 2°55.763 1.4 36 16 100410 46
2010-06-09 06:18:02 51°13.692 2°55.761 1.1 37 16 100410 46
2010-06-09 06:18:07 51°13.691 2°55.759 1.2 82 16 100410 46
2010-06-09 06:18:12 51°13.69 2°55.757 1.2 33 16 100410 45
2010-06-09 06:18:17 51°13.689 2°55.755 0.8 83 16 100410 45
2010-06-09 06:18:22 51°13.688 2°55.754 0.9 42 16 100410 45
2010-06-09 06:18:27 51°13.687 2°55.752 1.6 36 16 100410 45
2010-06-09 06:18:32 51°13.686 2°55.751 1.2 39 16 100410 43
2010-06-09 06:18:37 51°13.686 2°55.749 0.8 38 16 100410 43
2010-06-09 06:18:43 51°13.686 2°55.749 0.7 32 16 100410 47
2010-06-09 06:18:48 51°13.687 2°55.748 0.6 34 16 100410 47
2010-06-09 06:18:54 51°13.687 2°55.747 0.6 35 16 100410 47
2010-06-09 06:18:59 51°13.688 2°55.747 0.1 36 16 100410 47
2010-06-09 06:19:04 51°13.69 2°55.746 0.5 43 16 100410 47
2010-06-09 06:19:08 51°13.691 2°55.746 0.1 23 16 100410 46
2010-06-09 06:19:13 51°13.693 2°55.745 0.1 25 16 100410 46
2010-06-09 06:19:18 51°13.695 2°55.744 -999 23 16 100410 46
2010-06-09 06:19:23 51°13.698 2°55.743 -999 23 16 100410 44
2010-06-09 06:19:28 51°13.701 2°55.741 -999 23 16 100410 44
2010-06-09 06:19:33 51°13.704 2°55.739 -999 23 16 100410 45
2010-06-09 06:19:37 51°13.707 2°55.736 -999 24 16 100410 45
2010-06-09 06:19:42 51°13.711 2°55.733 -999 24 16 100410 45
2010-06-09 06:19:47 51°13.716 2°55.729 -999 24 16 100410 45
2010-06-09 06:19:52 51°13.721 2°55.724 -999 24 16 100410 46
2010-06-09 06:19:57 51°13.726 2°55.719 -999 24 16 100410 46
2010-06-09 06:20:02 51°13.732 2°55.714 -999 21 16 100410 46
2010-06-09 06:20:06 51°13.737 2°55.709 -999 19 16 100410 45
2010-06-09 06:20:12 51°13.746 2°55.703 -999 19 16 100410 45
2010-06-09 06:20:17 51°13.754 2°55.696 -999 4 16 100410 46
2010-06-09 06:20:22 51°13.761 2°55.69 -999 4 16 100410 46
2010-06-09 06:20:27 51°13.77 2°55.683 -999 5 16 100410 46
2010-06-09 06:20:32 51°13.778 2°55.676 -999 4 16 100410 46
2010-06-09 06:20:37 51°13.787 2°55.669 -999 282 16 100410 46
2010-06-09 06:20:42 51°13.796 2°55.661 -999 341 16 100410 46
2010-06-09 06:20:47 51°13.805 2°55.654 -999 282 16 100410 46
2010-06-09 06:20:52 51°13.815 2°55.646 -999 343 16 100410 46
2010-06-09 06:20:57 51°13.825 2°55.639 -999 281 16 100410 46
2010-06-09 06:21:02 51°13.835 2°55.631 -999 346 16 100410 45
2010-06-09 06:21:07 51°13.845 2°55.623 -999 282 16 100410 45
2010-06-09 06:21:12 51°13.855 2°55.615 -999 343 16 100410 45
2010-06-09 06:21:17 51°13.866 2°55.607 -999 282 16 100410 45
2010-06-09 06:21:22 51°13.876 2°55.599 -999 342 16 100410 45
2010-06-09 06:21:27 51°13.887 2°55.591 -999 281 16 100410 45
2010-06-09 06:21:32 51°13.898 2°55.583 -999 343 16 100410 45
2010-06-09 06:21:37 51°13.909 2°55.575 -999 282 16 100410 45
2010-06-09 06:21:42 51°13.92 2°55.567 -999 335 16 100410 46
2010-06-09 06:21:47 51°13.932 2°55.559 -999 282 16 100410 46
2010-06-09 06:21:52 51°13.943 2°55.551 -999 341 16 100410 45
2010-06-09 06:21:57 51°13.954 2°55.543 -999 282 16 100410 45
2010-06-09 06:22:02 51°13.966 2°55.535 -999 344 16 100410 44
2010-06-09 06:22:06 51°13.975 2°55.528 -999 282 16 100410 44
2010-06-09 06:22:12 51°13.989 2°55.518 -999 343 16 100410 44
2010-06-09 06:22:17 51°14 2°55.509 -999 282 16 100410 46
2010-06-09 06:22:22 51°14.012 2°55.5 -999 343 16 100410 46
2010-06-09 06:22:27 51°14.024 2°55.492 -999 282 16 100410 46
2010-06-09 06:22:32 51°14.035 2°55.483 0.1 336 16 100410 45
2010-06-09 06:22:37 51°14.047 2°55.474 2 282 16 100410 45
2010-06-09 06:22:42 51°14.059 2°55.465 1.8 339 16 100410 45
2010-06-09 06:22:47 51°14.071 2°55.456 1.1 279 16 100410 45
2010-06-09 06:22:52 51°14.084 2°55.447 1.1 339 16 100410 45
2010-06-09 06:22:57 51°14.096 2°55.437 0.9 285 16 100410 45
2010-06-09 06:23:02 51°14.108 2°55.427 0.8 341 16 100410 45
2010-06-09 06:23:07 51°14.12 2°55.417 0.7 280 16 100410 45
2010-06-09 06:23:13 51°14.134 2°55.405 0.8 342 16.1 100420 48
2010-06-09 06:23:17 51°14.144 2°55.397 0.8 282 16.1 100420 48
2010-06-09 06:23:22 51°14.157 2°55.386 0.9 335 16 100420 46
2010-06-09 06:23:27 51°14.169 2°55.376 0.7 281 16 100420 46
2010-06-09 06:23:32 51°14.181 2°55.365 0.8 336 16 100420 46
2010-06-09 06:23:38 51°14.196 2°55.352 0.9 282 16 100410 45
2010-06-09 06:23:42 51°14.206 2°55.343 1.2 336 16 100420 47
2010-06-09 06:23:47 51°14.218 2°55.332 0.8 282 16 100420 47
2010-06-09 06:23:52 51°14.231 2°55.321 1.5 339 16 100410 44
2010-06-09 06:23:57 51°14.243 2°55.31 1.1 282 16 100410 44
2010-06-09 06:24:02 51°14.256 2°55.299 1.7 340 16 100410 44
2010-06-09 06:24:07 51°14.268 2°55.287 1.7 282 16 100410 44
2010-06-09 06:24:12 51°14.281 2°55.276 2 339 16 100410 46
2010-06-09 06:24:17 51°14.294 2°55.264 1.5 282 16 100410 46
2010-06-09 06:24:22 51°14.306 2°55.253 0.9 344 16 100410 46
2010-06-09 06:24:26 51°14.316 2°55.243 1.2 282 16 100410 45
2010-06-09 06:24:32 51°14.332 2°55.229 1.4 339 16 100410 45
2010-06-09 06:24:37 51°14.345 2°55.217 1.2 281 16 100420 45
2010-06-09 06:24:42 51°14.357 2°55.205 1.6 339 16 100420 45
2010-06-09 06:24:47 51°14.37 2°55.192 1.6 277 16 100420 46
2010-06-09 06:24:52 51°14.382 2°55.179 1.7 333 16 100420 44
2010-06-09 06:24:57 51°14.395 2°55.166 1.9 285 16 100420 44
2010-06-09 06:25:02 51°14.408 2°55.153 2.2 337 16 100420 44
2010-06-09 06:25:06 51°14.418 2°55.143 2.2 283 16 100420 44
2010-06-09 06:25:12 51°14.433 2°55.126 2.4 336 16 100410 47
2010-06-09 06:25:17 51°14.446 2°55.113 2 277 16 100410 47
2010-06-09 06:25:22 51°14.458 2°55.099 2.9 336 16 100410 45
2010-06-09 06:25:27 51°14.471 2°55.086 2.2 283 16 100410 45
2010-06-09 06:25:33 51°14.486 2°55.07 2.4 331 16 100410 47
2010-06-09 06:25:37 51°14.496 2°55.059 2.8 277 16 100410 47
2010-06-09 06:25:42 51°14.509 2°55.045 2.5 336 16 100410 44
2010-06-09 06:25:47 51°14.521 2°55.031 2.3 285 16 100410 44
2010-06-09 06:25:52 51°14.534 2°55.017 2.1 335 16 100410 44
2010-06-09 06:25:57 51°14.547 2°55.004 2.4 284 16 100420 44
2010-06-09 06:26:02 51°14.56 2°54.991 3.1 336 16 100420 45
2010-06-09 06:26:07 51°14.574 2°54.979 2.9 283 16 100420 45
2010-06-09 06:26:12 51°14.587 2°54.967 3 333 16 100410 44
2010-06-09 06:26:18 51°14.603 2°54.952 3 282 16 100410 44
2010-06-09 06:26:22 51°14.614 2°54.943 3 337 16 100410 44
2010-06-09 06:26:27 51°14.628 2°54.93 3.1 284 16 100410 44
2010-06-09 06:26:32 51°14.641 2°54.918 2.5 336 16 100420 47
2010-06-09 06:26:37 51°14.654 2°54.905 2.9 285 16 100420 47
2010-06-09 06:26:42 51°14.667 2°54.893 3.1 335 16 100410 47
2010-06-09 06:26:47 51°14.68 2°54.881 2.9 280 16 100410 47
2010-06-09 06:26:52 51°14.694 2°54.87 3.1 341 16 100410 47
2010-06-09 06:26:57 51°14.707 2°54.858 3.2 280 16 100410 45
2010-06-09 06:27:02 51°14.72 2°54.847 3.5 340 16 100410 45
2010-06-09 06:27:07 51°14.734 2°54.837 3.6 278 16 100410 44
2010-06-09 06:27:12 51°14.748 2°54.826 3.5 339 16.1 100410 46
2010-06-09 06:27:17 51°14.763 2°54.815 3.9 283 16.1 100410 46
2010-06-09 06:27:22 51°14.777 2°54.804 3.8 339 16 100410 46
2010-06-09 06:27:27 51°14.792 2°54.794 3.7 284 16 100410 46
2010-06-09 06:27:32 51°14.807 2°54.783 4.3 341 16.1 100410 44
2010-06-09 06:27:37 51°14.823 2°54.771 3.7 285 16.1 100410 44
2010-06-09 06:27:42 51°14.838 2°54.76 4.1 340 16.1 100410 44
2010-06-09 06:27:46 51°14.85 2°54.75 3.9 284 16.1 100410 44
2010-06-09 06:27:52 51°14.869 2°54.737 4.3 339 16.1 100410 44
2010-06-09 06:27:57 51°14.885 2°54.726 3.8 284 16.1 100410 47
2010-06-09 06:28:02 51°14.901 2°54.715 4.3 339 16 100410 47
2010-06-09 06:28:06 51°14.914 2°54.705 4.5 284 16 100410 47
2010-06-09 06:28:12 51°14.934 2°54.693 4.2 339 16 100410 47
2010-06-09 06:28:17 51°14.951 2°54.682 4.5 283 16 100410 46
2010-06-09 06:28:22 51°14.967 2°54.673 3.9 339 16 100410 45
2010-06-09 06:28:27 51°14.984 2°54.664 3.9 278 16 100410 45
2010-06-09 06:28:32 51°15.001 2°54.655 4.4 340 16 100410 47
2010-06-09 06:28:37 51°15.018 2°54.646 4.3 277 16 100410 47
2010-06-09 06:28:42 51°15.034 2°54.636 4.2 339 16 100410 44
2010-06-09 06:28:47 51°15.051 2°54.625 3.8 284 16 100410 44
2010-06-09 06:28:52 51°15.067 2°54.612 4 338 16 100410 44
2010-06-09 06:28:57 51°15.082 2°54.599 3.8 279 16 100410 47
2010-06-09 06:29:02 51°15.097 2°54.584 3.4 336 16 100410 47
2010-06-09 06:29:07 51°15.112 2°54.568 3.6 278 16 100410 44
2010-06-09 06:29:12 51°15.127 2°54.552 3.5 337 16 100410 45
2010-06-09 06:29:17 51°15.142 2°54.536 3.8 284 16 100410 45
2010-06-09 06:29:22 51°15.156 2°54.52 3.9 337 16 100410 45
2010-06-09 06:29:27 51°15.172 2°54.505 3.5 285 16 100420 45
2010-06-09 06:29:32 51°15.187 2°54.491 3.6 339 16 100410 45
2010-06-09 06:29:37 51°15.203 2°54.477 3.7 285 16 100410 45
2010-06-09 06:29:42 51°15.22 2°54.465 4.3 338 16 100420 46
2010-06-09 06:29:47 51°15.236 2°54.452 4.1 284 16 100420 46
2010-06-09 06:29:52 51°15.253 2°54.441 3.9 339 16 100410 44
2010-06-09 06:29:57 51°15.269 2°54.429 3.9 285 16 100410 44
2010-06-09 06:30:02 51°15.286 2°54.416 3.8 339 15.9 100410 43
2010-06-09 06:30:06 51°15.299 2°54.406 4.1 278 15.9 100410 43
2010-06-09 06:30:12 51°15.318 2°54.39 4.2 339 15.9 100410 43
2010-06-09 06:30:17 51°15.335 2°54.376 3.8 284 16 100410 47
2010-06-09 06:30:22 51°15.35 2°54.361 3.8 338 16 100410 46
2010-06-09 06:30:27 51°15.366 2°54.347 3.7 284 16 100410 46
2010-06-09 06:30:33 51°15.385 2°54.329 3.9 337 16 100410 44
2010-06-09 06:30:38 51°15.401 2°54.313 4.1 278 16 100410 44
2010-06-09 06:30:43 51°15.417 2°54.298 4.5 336 16 100420 46
2010-06-09 06:30:48 51°15.433 2°54.282 4.2 281 16 100420 46
2010-06-09 06:30:53 51°15.449 2°54.267 3.9 336 16 100420 46
2010-06-09 06:30:58 51°15.464 2°54.251 4 277 15.9 100410 47
2010-06-09 06:31:03 51°15.48 2°54.236 3.9 335 15.9 100410 44
2010-06-09 06:31:08 51°15.496 2°54.221 4.4 277 15.9 100410 44
2010-06-09 06:31:13 51°15.512 2°54.206 3.8 336 15.9 100410 47
2010-06-09 06:31:18 51°15.528 2°54.191 4.3 277 15.9 100410 47
2010-06-09 06:31:23 51°15.544 2°54.176 4.4 336 15.9 100410 45
2010-06-09 06:31:28 51°15.56 2°54.161 3.9 284 15.9 100410 45
2010-06-09 06:31:33 51°15.576 2°54.146 4.1 335 15.9 100410 45
2010-06-09 06:31:38 51°15.592 2°54.131 4.1 279 15.9 100410 45
2010-06-09 06:31:43 51°15.608 2°54.115 4.1 335 15.9 100410 45
2010-06-09 06:31:47 51°15.621 2°54.103 4.3 277 15.9 100410 45
2010-06-09 06:31:53 51°15.64 2°54.085 4.2 335 15.9 100420 47
2010-06-09 06:31:58 51°15.656 2°54.07 3.8 284 15.9 100420 47
2010-06-09 06:32:03 51°15.672 2°54.055 4 335 15.9 100410 44
2010-06-09 06:32:08 51°15.688 2°54.041 4.2 278 15.9 100410 44
2010-06-09 06:32:13 51°15.704 2°54.026 4.1 336 15.9 100410 46
2010-06-09 06:32:18 51°15.72 2°54.011 4.1 284 15.9 100410 46
2010-06-09 06:32:23 51°15.735 2°53.996 3.9 337 15.9 100410 46
2010-06-09 06:32:27 51°15.747 2°53.984 4.3 284 15.9 100410 46
2010-06-09 06:32:33 51°15.765 2°53.963 4.1 336 15.9 100410 46
2010-06-09 06:32:38 51°15.78 2°53.947 4.2 284 15.9 100410 44
2010-06-09 06:32:43 51°15.795 2°53.93 3.8 335 15.9 100420 46
2010-06-09 06:32:48 51°15.81 2°53.913 3.7 285 15.9 100420 46
2010-06-09 06:32:53 51°15.824 2°53.895 3.9 335 15.9 100420 46
2010-06-09 06:32:58 51°15.839 2°53.878 3.6 285 15.9 100410 47
2010-06-09 06:33:03 51°15.854 2°53.86 3.7 333 15.9 100410 44
2010-06-09 06:33:08 51°15.868 2°53.843 3.7 279 15.9 100410 44
2010-06-09 06:33:13 51°15.883 2°53.825 4 334 15.9 100410 44
2010-06-09 06:33:17 51°15.895 2°53.811 3.3 284 15.9 100410 45
2010-06-09 06:33:23 51°15.912 2°53.791 3.4 333 15.9 100410 45
2010-06-09 06:33:28 51°15.926 2°53.773 4.1 283 15.9 100420 47
2010-06-09 06:33:33 51°15.941 2°53.756 4.2 333 15.9 100410 46
2010-06-09 06:33:38 51°15.956 2°53.739 4 279 15.9 100410 46
2010-06-09 06:33:43 51°15.97 2°53.722 3.7 333 15.9 100420 45
2010-06-09 06:33:47 51°15.982 2°53.709 3.4 280 15.9 100420 45
2010-06-09 06:33:53 51°16 2°53.688 3.9 333 15.9 100410 47
2010-06-09 06:33:57 51°16.012 2°53.674 4 281 15.9 100410 47
2010-06-09 06:34:03 51°16.029 2°53.653 3.8 334 15.9 100410 46
2010-06-09 06:34:08 51°16.044 2°53.636 3.9 278 15.9 100410 46
2010-06-09 06:34:13 51°16.059 2°53.619 3.8 333 15.9 100420 44
2010-06-09 06:34:18 51°16.074 2°53.602 3.9 281 15.9 100420 44
2010-06-09 06:34:23 51°16.088 2°53.585 3.6 334 15.9 100420 44
2010-06-09 06:34:27 51°16.1 2°53.571 3.5 281 15.9 100410 47
2010-06-09 06:34:33 51°16.118 2°53.55 3.7 333 15.9 100410 47
2010-06-09 06:34:38 51°16.133 2°53.533 4 283 15.9 100410 47
2010-06-09 06:34:43 51°16.147 2°53.515 3.7 336 15.9 100410 46
2010-06-09 06:34:48 51°16.162 2°53.498 4 284 15.9 100410 46
2010-06-09 06:34:53 51°16.177 2°53.48 4 333 15.9 100420 47
2010-06-09 06:34:57 51°16.189 2°53.466 3.6 284 15.9 100420 47
2010-06-09 06:35:03 51°16.207 2°53.446 3.4 333 15.9 100410 44
2010-06-09 06:35:08 51°16.221 2°53.429 3.9 278 15.9 100410 44
2010-06-09 06:35:13 51°16.236 2°53.412 3.9 334 15.9 100410 44
2010-06-09 06:35:18 51°16.251 2°53.395 3.7 284 15.9 100410 47
2010-06-09 06:35:23 51°16.266 2°53.377 3.6 335 15.9 100420 43
2010-06-09 06:35:27 51°16.278 2°53.364 4 278 15.9 100420 43
2010-06-09 06:35:33 51°16.296 2°53.343 3.6 335 15.9 100420 43
2010-06-09 06:35:38 51°16.311 2°53.327 3.9 279 15.9 100410 44
2010-06-09 06:35:43 51°16.326 2°53.31 3.9 333 15.9 100410 47
2010-06-09 06:35:48 51°16.341 2°53.294 4.1 278 15.9 100410 47
2010-06-09 06:35:53 51°16.355 2°53.277 3.6 335 15.9 100410 45
2010-06-09 06:35:58 51°16.37 2°53.261 3.7 278 15.9 100410 45
2010-06-09 06:36:03 51°16.385 2°53.244 3.6 335 15.9 100410 47
2010-06-09 06:36:08 51°16.4 2°53.228 4.1 284 15.9 100410 47
2010-06-09 06:36:13 51°16.415 2°53.211 3.8 335 15.9 100410 47
2010-06-09 06:36:18 51°16.43 2°53.195 4 285 15.9 100410 47
2010-06-09 06:36:23 51°16.445 2°53.178 4.2 337 15.9 100410 44
2010-06-09 06:36:28 51°16.459 2°53.162 3.6 278 15.9 100410 44
2010-06-09 06:36:33 51°16.474 2°53.145 3.8 337 15.9 100410 44
2010-06-09 06:36:38 51°16.489 2°53.129 3.8 283 15.9 100410 44
2010-06-09 06:36:43 51°16.505 2°53.114 3.7 337 15.9 100410 44
2010-06-09 06:36:47 51°16.517 2°53.102 3.8 284 15.9 100410 44
2010-06-09 06:36:53 51°16.535 2°53.084 3.8 336 15.9 100410 47
2010-06-09 06:36:58 51°16.551 2°53.069 4.1 280 15.9 100410 47
2010-06-09 06:37:03 51°16.566 2°53.055 3.8 337 15.9 100410 45
2010-06-09 06:37:07 51°16.579 2°53.044 3.4 283 15.9 100410 45
2010-06-09 06:37:13 51°16.597 2°53.027 3.7 337 15.9 100410 47
2010-06-09 06:37:18 51°16.613 2°53.013 3.8 284 15.9 100410 47
2010-06-09 06:37:23 51°16.629 2°52.999 3.9 337 15.9 100410 44
2010-06-09 06:37:28 51°16.644 2°52.985 3.8 279 15.9 100410 44
2010-06-09 06:37:33 51°16.66 2°52.971 3.6 337 15.9 100420 44
2010-06-09 06:37:38 51°16.675 2°52.957 4 282 15.9 100420 44
2010-06-09 06:37:43 51°16.691 2°52.943 3.7 337 15.9 100410 46
2010-06-09 06:37:48 51°16.706 2°52.929 4 284 15.9 100410 46
2010-06-09 06:37:53 51°16.722 2°52.915 3.9 337 15.9 100420 47
2010-06-09 06:37:58 51°16.737 2°52.902 3.7 279 15.9 100420 47
2010-06-09 06:38:03 51°16.753 2°52.887 3.9 337 15.9 100410 43
2010-06-09 06:38:07 51°16.765 2°52.876 3.9 283 15.9 100410 43
2010-06-09 06:38:13 51°16.784 2°52.86 4 337 15.9 100410 44
2010-06-09 06:38:18 51°16.799 2°52.846 4 282 15.9 100410 44
2010-06-09 06:38:23 51°16.815 2°52.832 3.9 336 15.9 100420 44
2010-06-09 06:38:28 51°16.83 2°52.818 3.5 283 15.9 100420 44
2010-06-09 06:38:33 51°16.845 2°52.805 3.7 337 15.9 100420 46
2010-06-09 06:38:38 51°16.86 2°52.791 4 279 15.9 100420 46
2010-06-09 06:38:43 51°16.876 2°52.778 4.2 337 15.9 100420 44
2010-06-09 06:38:48 51°16.892 2°52.766 4.1 283 15.9 100420 44
2010-06-09 06:38:53 51°16.908 2°52.755 4.1 339 15.8 100420 44
2010-06-09 06:38:58 51°16.924 2°52.744 3.9 285 15.8 100420 44
2010-06-09 06:39:03 51°16.94 2°52.734 4.2 338 15.8 100410 45
2010-06-09 06:39:07 51°16.953 2°52.725 4 278 15.8 100410 45
2010-06-09 06:39:13 51°16.973 2°52.713 4.3 338 15.9 100420 45
2010-06-09 06:39:18 51°16.99 2°52.704 4.1 285 15.9 100420 45
2010-06-09 06:39:23 51°17.007 2°52.695 4.2 339 15.8 100420 44
2010-06-09 06:39:28 51°17.023 2°52.686 4.3 283 15.8 100420 44
2010-06-09 06:39:33 51°17.04 2°52.677 4.8 337 15.8 100420 44
2010-06-09 06:39:38 51°17.057 2°52.668 4.5 280 15.8 100410 46
2010-06-09 06:39:43 51°17.074 2°52.659 4.1 338 15.8 100410 44
2010-06-09 06:39:48 51°17.091 2°52.652 4.3 -999 15.8 100410 44
2010-06-09 06:39:53 51°17.107 2°52.644 4.4 338 15.8 100420 44
2010-06-09 06:39:58 51°17.124 2°52.639 4.5 279 15.8 100420 44
2010-06-09 06:40:03 51°17.141 2°52.633 4.8 339 15.8 100420 45
2010-06-09 06:40:07 51°17.155 2°52.63 4.4 285 15.8 100420 45
2010-06-09 06:40:13 51°17.175 2°52.623 4.7 339 15.8 100420 47
2010-06-09 06:40:18 51°17.192 2°52.619 4.6 278 15.8 100420 47
2010-06-09 06:40:23 51°17.21 2°52.616 4.6 340 15.8 100420 44
2010-06-09 06:40:28 51°17.227 2°52.612 4.6 282 15.8 100420 44
2010-06-09 06:40:33 51°17.244 2°52.608 4.5 339 15.8 100420 47
2010-06-09 06:40:38 51°17.261 2°52.604 4.5 285 15.8 100420 47
2010-06-09 06:40:43 51°17.278 2°52.601 4.6 339 15.8 100410 46
2010-06-09 06:40:48 51°17.296 2°52.597 4.4 339 15.8 100410 46
2010-06-09 06:40:53 51°17.313 2°52.593 4.7 339 15.8 100420 44
2010-06-09 06:40:58 51°17.33 2°52.59 4.9 283 15.8 100420 44
2010-06-09 06:41:03 51°17.347 2°52.586 5 339 15.8 100420 44
2010-06-09 06:41:07 51°17.361 2°52.583 4.6 284 15.8 100420 44
2010-06-09 06:41:13 51°17.382 2°52.579 4.9 339 15.8 100420 44
2010-06-09 06:41:18 51°17.399 2°52.575 4.7 280 15.8 100420 46
2010-06-09 06:41:23 51°17.416 2°52.571 4.3 339 15.8 100420 45
2010-06-09 06:41:28 51°17.433 2°52.567 4.6 285 15.8 100420 45
2010-06-09 06:41:33 51°17.451 2°52.563 4.9 338 15.8 100420 45
2010-06-09 06:41:38 51°17.468 2°52.559 4.7 282 15.8 100420 46
2010-06-09 06:41:43 51°17.485 2°52.556 4.3 339 15.8 100420 44
2010-06-09 06:41:48 51°17.502 2°52.551 4.8 284 15.8 100420 44
2010-06-09 06:41:53 51°17.52 2°52.548 4.9 340 15.8 100420 44
2010-06-09 06:41:58 51°17.537 2°52.544 4.3 280 15.8 100420 44
2010-06-09 06:42:03 51°17.554 2°52.54 4.4 340 15.8 100420 44
2010-06-09 06:42:08 51°17.571 2°52.535 4.7 277 15.8 100420 44
2010-06-09 06:42:13 51°17.588 2°52.53 4.3 339 15.8 100420 44
2010-06-09 06:42:18 51°17.605 2°52.526 4.4 282 15.8 100420 44
2010-06-09 06:42:23 51°17.622 2°52.52 4.3 339 15.8 100420 46
2010-06-09 06:42:27 51°17.636 2°52.515 4.7 284 15.8 100420 46
2010-06-09 06:42:33 51°17.657 2°52.508 4.6 340 15.8 100420 44
2010-06-09 06:42:38 51°17.674 2°52.503 4.2 281 15.8 100420 44
2010-06-09 06:42:43 51°17.691 2°52.497 4.1 339 15.8 100420 47
2010-06-09 06:42:48 51°17.708 2°52.491 4 280 15.8 100420 47
2010-06-09 06:42:53 51°17.725 2°52.486 4.1 339 15.8 100420 44
2010-06-09 06:42:58 51°17.742 2°52.48 4.1 282 15.8 100420 44
2010-06-09 06:43:03 51°17.759 2°52.475 4.7 340 15.8 100420 45
2010-06-09 06:43:07 51°17.773 2°52.47 4.3 283 15.8 100420 45
2010-06-09 06:43:13 51°17.793 2°52.463 3.9 339 15.8 100420 47
2010-06-09 06:43:18 51°17.81 2°52.456 4.1 281 15.8 100420 47
2010-06-09 06:43:23 51°17.827 2°52.451 4.2 340 15.8 100420 46
2010-06-09 06:43:28 51°17.844 2°52.445 4.4 284 15.8 100420 46
2010-06-09 06:43:33 51°17.861 2°52.439 4.2 340 15.8 100420 46
2010-06-09 06:43:38 51°17.878 2°52.433 4 284 15.8 100420 47
2010-06-09 06:43:43 51°17.895 2°52.426 4.3 340 15.8 100420 47
2010-06-09 06:43:48 51°17.912 2°52.42 4.2 -999 15.8 100420 47
2010-06-09 06:43:53 51°17.93 2°52.415 4.5 340 15.8 100420 47
2010-06-09 06:43:58 51°17.947 2°52.409 4.4 278 15.8 100420 47
2010-06-09 06:44:03 51°17.964 2°52.403 4.6 339 15.8 100420 45
2010-06-09 06:44:08 51°17.981 2°52.398 3.9 278 15.8 100420 45
2010-06-09 06:44:13 51°17.998 2°52.392 4.3 339 15.8 100420 45
2010-06-09 06:44:18 51°18.015 2°52.386 4.2 283 15.8 100420 45
2010-06-09 06:44:23 51°18.032 2°52.38 4.3 340 15.8 100420 45
2010-06-09 06:44:27 51°18.046 2°52.376 4.2 286 15.8 100420 45
2010-06-09 06:44:33 51°18.067 2°52.37 4.2 340 15.8 100420 45
2010-06-09 06:44:38 51°18.084 2°52.364 4.1 283 15.8 100420 45
2010-06-09 06:44:43 51°18.101 2°52.359 4.5 341 15.8 100420 47
2010-06-09 06:44:48 51°18.118 2°52.354 4.7 285 15.8 100420 47
2010-06-09 06:44:53 51°18.136 2°52.349 4.3 339 15.8 100420 46
2010-06-09 06:44:58 51°18.153 2°52.343 4 283 15.8 100420 46
2010-06-09 06:45:03 51°18.17 2°52.337 4.1 339 15.8 100420 45
2010-06-09 06:45:07 51°18.184 2°52.332 4.4 285 15.8 100420 45
2010-06-09 06:45:13 51°18.205 2°52.325 4.1 339 15.8 100420 45
2010-06-09 06:45:18 51°18.222 2°52.319 4.3 281 15.8 100420 45
2010-06-09 06:45:23 51°18.239 2°52.313 4.2 338 15.7 100420 45
2010-06-09 06:45:28 51°18.256 2°52.307 4.3 284 15.7 100420 45
2010-06-09 06:45:33 51°18.273 2°52.301 4.1 338 15.7 100420 47
2010-06-09 06:45:38 51°18.291 2°52.295 4.2 282 15.7 100420 47
2010-06-09 06:45:43 51°18.308 2°52.29 4.3 338 15.7 100420 44
2010-06-09 06:45:48 51°18.325 2°52.284 4.2 -999 15.7 100420 44
2010-06-09 06:45:53 51°18.342 2°52.278 4.2 339 15.7 100420 44
2010-06-09 06:45:58 51°18.36 2°52.272 4.4 285 15.7 100420 46
2010-06-09 06:46:03 51°18.377 2°52.266 4.2 338 15.8 100420 46
2010-06-09 06:46:08 51°18.394 2°52.261 4.2 278 15.8 100420 46
2010-06-09 06:46:13 51°18.411 2°52.254 4.1 338 15.7 100420 44
2010-06-09 06:46:18 51°18.428 2°52.249 4.4 283 15.7 100420 44
2010-06-09 06:46:23 51°18.446 2°52.242 4.1 337 15.7 100420 45
2010-06-09 06:46:27 51°18.459 2°52.238 4.2 279 15.7 100420 45
2010-06-09 06:46:33 51°18.48 2°52.23 4.1 337 15.7 100420 45
2010-06-09 06:46:38 51°18.497 2°52.225 4.1 284 15.7 100420 45
2010-06-09 06:46:43 51°18.514 2°52.218 4.3 337 15.7 100420 45
2010-06-09 06:46:48 51°18.531 2°52.212 4.4 -999 15.7 100420 45
2010-06-09 06:46:53 51°18.549 2°52.206 4.1 337 15.7 100420 44
2010-06-09 06:46:58 51°18.566 2°52.2 4 283 15.7 100420 44
2010-06-09 06:47:03 51°18.583 2°52.194 3.9 337 15.7 100420 44
2010-06-09 06:47:07 51°18.597 2°52.189 4.2 280 15.7 100420 44
2010-06-09 06:47:13 51°18.617 2°52.182 4.2 337 15.7 100420 45
2010-06-09 06:47:18 51°18.635 2°52.175 3.9 283 15.7 100420 45
2010-06-09 06:47:23 51°18.652 2°52.169 3.8 338 15.7 100420 47
2010-06-09 06:47:28 51°18.669 2°52.163 4.6 284 15.7 100420 47
2010-06-09 06:47:33 51°18.686 2°52.157 4.6 337 15.7 100420 44
2010-06-09 06:47:38 51°18.703 2°52.15 4.1 285 15.7 100420 44
2010-06-09 06:47:43 51°18.72 2°52.144 3.9 337 15.7 100420 45
2010-06-09 06:47:48 51°18.737 2°52.138 4.3 -999 15.7 100420 45
2010-06-09 06:47:53 51°18.755 2°52.131 4.4 335 15.7 100420 45
2010-06-09 06:47:58 51°18.772 2°52.125 4.4 283 15.7 100420 44
2010-06-09 06:48:03 51°18.789 2°52.118 4.3 336 15.7 100420 45
2010-06-09 06:48:08 51°18.806 2°52.112 4.2 280 15.7 100420 45
2010-06-09 06:48:13 51°18.823 2°52.105 4.1 335 15.7 100420 45
2010-06-09 06:48:18 51°18.841 2°52.098 4 283 15.7 100420 45
2010-06-09 06:48:23 51°18.858 2°52.092 4.4 335 15.7 100420 45
2010-06-09 06:48:27 51°18.872 2°52.087 4.3 284 15.7 100420 45
2010-06-09 06:48:33 51°18.893 2°52.079 4.3 334 15.7 100430 44
2010-06-09 06:48:38 51°18.91 2°52.072 4.5 283 15.7 100430 44
2010-06-09 06:48:43 51°18.927 2°52.066 4.5 334 15.7 100420 46
2010-06-09 06:48:48 51°18.944 2°52.059 4.3 -999 15.7 100420 46
2010-06-09 06:48:53 51°18.962 2°52.053 4.4 334 15.7 100420 47
2010-06-09 06:48:58 51°18.979 2°52.046 4.4 279 15.7 100420 47
2010-06-09 06:49:03 51°18.996 2°52.04 4.5 335 15.7 100430 47
2010-06-09 06:49:07 51°19.01 2°52.035 4.4 278 15.7 100430 47
2010-06-09 06:49:13 51°19.031 2°52.027 4.7 334 15.7 100420 44
2010-06-09 06:49:18 51°19.048 2°52.02 4.7 285 15.7 100420 44
2010-06-09 06:49:23 51°19.065 2°52.014 4.7 334 15.7 100420 44
2010-06-09 06:49:28 51°19.083 2°52.008 4.5 283 15.7 100420 47
2010-06-09 06:49:33 51°19.1 2°52.001 4.5 334 15.7 100420 47
2010-06-09 06:49:38 51°19.117 2°51.995 4.8 278 15.7 100420 47
2010-06-09 06:49:43 51°19.135 2°51.988 4.6 333 15.7 100420 47
2010-06-09 06:49:48 51°19.152 2°51.982 4.5 333 15.7 100420 46
2010-06-09 06:49:53 51°19.169 2°51.976 4.5 334 15.7 100420 46
2010-06-09 06:49:58 51°19.187 2°51.97 4.8 283 15.7 100420 46
2010-06-09 06:50:03 51°19.204 2°51.963 4.9 333 15.7 100420 46
2010-06-09 06:50:07 51°19.218 2°51.958 4.3 283 15.7 100420 44
2010-06-09 06:50:13 51°19.239 2°51.951 4.8 332 15.7 100420 44
2010-06-09 06:50:18 51°19.256 2°51.944 5 284 15.7 100420 44
2010-06-09 06:50:23 51°19.274 2°51.938 5.1 333 15.7 100420 44
2010-06-09 06:50:28 51°19.291 2°51.932 4.7 279 15.7 100420 46
2010-06-09 06:50:33 51°19.308 2°51.925 4.9 333 15.7 100420 46
2010-06-09 06:50:38 51°19.326 2°51.919 4.9 278 15.7 100430 44
2010-06-09 06:50:43 51°19.343 2°51.912 4.5 332 15.7 100430 44
2010-06-09 06:50:48 51°19.36 2°51.906 4.7 333 15.7 100420 45
2010-06-09 06:50:53 51°19.378 2°51.9 5.1 332 15.7 100420 45
2010-06-09 06:50:58 51°19.395 2°51.893 5.2 284 15.7 100420 44
2010-06-09 06:51:03 51°19.413 2°51.887 4.8 333 15.7 100420 44
2010-06-09 06:51:07 51°19.427 2°51.882 4.5 284 15.7 100420 45
2010-06-09 06:51:13 51°19.448 2°51.875 4.8 332 15.7 100420 45
2010-06-09 06:51:18 51°19.465 2°51.868 4.8 284 15.7 100420 46
2010-06-09 06:51:23 51°19.482 2°51.862 4.6 332 15.7 100420 46
2010-06-09 06:51:28 51°19.499 2°51.856 5 279 15.7 100420 44
2010-06-09 06:51:33 51°19.517 2°51.85 5.2 333 15.7 100420 44
2010-06-09 06:51:38 51°19.534 2°51.844 4.7 279 15.7 100430 45
2010-06-09 06:51:43 51°19.551 2°51.838 4.3 332 15.7 100430 45
2010-06-09 06:51:48 51°19.569 2°51.832 4.7 332 15.7 100430 44
2010-06-09 06:51:53 51°19.586 2°51.826 5 331 15.7 100430 44
2010-06-09 06:51:58 51°19.604 2°51.82 4.9 282 15.7 100420 47
2010-06-09 06:52:03 51°19.621 2°51.813 4.8 332 15.7 100420 47
2010-06-09 06:52:07 51°19.635 2°51.809 4.8 283 15.7 100420 47
2010-06-09 06:52:13 51°19.655 2°51.801 4.6 332 15.7 100420 47
2010-06-09 06:52:18 51°19.673 2°51.795 5 278 15.7 100420 47
2010-06-09 06:52:23 51°19.689 2°51.788 4.7 331 15.7 100420 47
2010-06-09 06:52:28 51°19.706 2°51.782 4.3 286 15.7 100420 44
2010-06-09 06:52:33 51°19.722 2°51.776 4.6 330 15.7 100420 44
2010-06-09 06:52:38 51°19.738 2°51.771 4.6 277 15.7 100430 44
2010-06-09 06:52:43 51°19.753 2°51.766 4.5 331 15.7 100430 44
2010-06-09 06:52:48 51°19.769 2°51.761 3.9 332 15.7 100420 46
2010-06-09 06:52:53 51°19.784 2°51.756 4 331 15.7 100420 46
2010-06-09 06:52:58 51°19.799 2°51.752 4.2 284 15.7 100420 44
2010-06-09 06:53:03 51°19.814 2°51.747 4.2 332 15.7 100420 44
2010-06-09 06:53:07 51°19.826 2°51.744 4.4 283 15.7 100420 45
2010-06-09 06:53:13 51°19.844 2°51.738 4.4 331 15.7 100420 45
2010-06-09 06:53:18 51°19.859 2°51.733 4.4 283 15.7 100420 47
2010-06-09 06:53:23 51°19.874 2°51.728 4.1 331 15.7 100420 47
2010-06-09 06:53:28 51°19.889 2°51.724 3.8 285 15.7 100420 44
2010-06-09 06:53:33 51°19.904 2°51.719 3.6 330 15.7 100420 44
2010-06-09 06:53:38 51°19.919 2°51.714 4.1 283 15.7 100420 45
2010-06-09 06:53:43 51°19.934 2°51.71 3.9 330 15.7 100420 45
2010-06-09 06:53:47 51°19.946 2°51.706 4.2 278 15.7 100430 47
2010-06-09 06:53:53 51°19.964 2°51.7 4.5 329 15.7 100430 47
2010-06-09 06:53:58 51°19.978 2°51.695 4.3 279 15.7 100430 44
2010-06-09 06:54:03 51°19.993 2°51.69 4.4 329 15.7 100430 44
2010-06-09 06:54:07 51°20.005 2°51.687 4 283 15.6 100420 44
2010-06-09 06:54:13 51°20.023 2°51.681 4.1 328 15.6 100420 44
2010-06-09 06:54:18 51°20.037 2°51.676 4.2 284 15.6 100420 44
2010-06-09 06:54:23 51°20.052 2°51.672 4 328 15.6 100420 44
2010-06-09 06:54:27 51°20.064 2°51.668 4.5 284 15.6 100420 44
2010-06-09 06:54:33 51°20.082 2°51.662 4.8 328 15.6 100420 44
2010-06-09 06:54:38 51°20.097 2°51.657 4.4 284 15.6 100430 47
2010-06-09 06:54:43 51°20.113 2°51.651 4.6 327 15.6 100430 47
2010-06-09 06:54:47 51°20.125 2°51.647 4.2 328 15.6 100420 45
2010-06-09 06:54:53 51°20.145 2°51.641 4.7 328 15.6 100420 45
2010-06-09 06:54:58 51°20.162 2°51.636 4.9 281 15.6 100420 45
2010-06-09 06:55:03 51°20.179 2°51.631 5.4 329 15.6 100420 45
2010-06-09 06:55:08 51°20.196 2°51.627 4.8 282 15.6 100420 46
2010-06-09 06:55:13 51°20.214 2°51.622 5.4 328 15.6 100420 46
2010-06-09 06:55:18 51°20.232 2°51.618 4.9 279 15.6 100420 46
2010-06-09 06:55:23 51°20.249 2°51.613 4.9 328 15.6 100420 46
2010-06-09 06:55:28 51°20.267 2°51.608 5 284 15.6 100420 44
2010-06-09 06:55:33 51°20.285 2°51.603 5 328 15.6 100420 44
2010-06-09 06:55:38 51°20.302 2°51.598 5.6 285 15.6 100420 46
2010-06-09 06:55:43 51°20.32 2°51.594 5.1 328 15.6 100420 46
2010-06-09 06:55:48 51°20.338 2°51.589 5.6 328 15.6 100420 45
2010-06-09 06:55:53 51°20.356 2°51.584 5 328 15.6 100420 45
2010-06-09 06:55:58 51°20.374 2°51.579 5 280 15.6 100420 44
2010-06-09 06:56:03 51°20.391 2°51.575 5.4 327 15.6 100420 44
2010-06-09 06:56:08 51°20.409 2°51.57 5.5 284 15.5 100420 46
2010-06-09 06:56:13 51°20.427 2°51.565 5.4 327 15.5 100420 46
2010-06-09 06:56:18 51°20.445 2°51.56 5.3 278 15.5 100420 46
2010-06-09 06:56:23 51°20.463 2°51.555 5.2 327 15.5 100420 46
2010-06-09 06:56:27 51°20.477 2°51.551 5.7 283 15.5 100420 46
2010-06-09 06:56:33 51°20.499 2°51.546 5.3 327 15.5 100420 46
2010-06-09 06:56:38 51°20.517 2°51.54 5.2 283 15.5 100420 44
2010-06-09 06:56:43 51°20.535 2°51.535 5 327 15.5 100420 44
2010-06-09 06:56:48 51°20.552 2°51.53 5.5 327 15.4 100420 45
2010-06-09 06:56:53 51°20.57 2°51.525 5.4 328 15.4 100420 45
2010-06-09 06:56:58 51°20.588 2°51.52 5.4 279 15.5 100420 47
2010-06-09 06:57:03 51°20.606 2°51.515 5.3 327 15.5 100420 47
2010-06-09 06:57:08 51°20.624 2°51.51 5.6 285 15.5 100420 45
2010-06-09 06:57:13 51°20.642 2°51.505 5.1 328 15.5 100420 45
2010-06-09 06:57:13 51°20.642 2°51.505 5.1 328 15.5 100420 45
2010-06-09 06:57:23 51°20.677 2°51.494 5.5 327 15.4 100420 45
2010-06-09 06:57:27 51°20.692 2°51.49 5.3 327 15.4 100420 46
2010-06-09 06:57:33 51°20.713 2°51.484 5.3 328 15.4 100420 46
2010-06-09 06:57:38 51°20.731 2°51.479 5.2 284 15.4 100420 45
2010-06-09 06:57:43 51°20.749 2°51.473 4.9 328 15.4 100420 45
2010-06-09 06:57:47 51°20.763 2°51.469 5.6 279 15.4 100420 45
2010-06-09 06:58:07 51°20.835 2°51.447 5.6 327 15.4 100420 45
2010-06-09 06:58:19 51°20.878 2°51.433 5.5 328 15.5 100410 45
2010-06-09 06:58:25 51°20.899 2°51.427 5.5 328 15.5 100420 47
2010-06-09 06:58:30 51°20.917 2°51.421 5.8 329 15.5 100420 47
2010-06-09 06:58:35 51°20.935 2°51.416 5.9 328 15.4 100420 46
2010-06-09 06:58:39 51°20.95 2°51.412 5.7 328 15.4 100420 46
2010-06-09 06:58:45 51°20.971 2°51.406 5.6 329 15.4 100420 44
2010-06-09 06:58:50 51°20.989 2°51.4 5.8 329 15.4 100420 44
2010-06-09 06:58:55 51°21.007 2°51.395 6 328 15.4 100420 44
2010-06-09 06:59:00 51°21.025 2°51.39 5.6 328 15.4 100420 44
2010-06-09 06:59:05 51°21.043 2°51.384 5.8 328 15.4 100420 47
2010-06-09 06:59:10 51°21.061 2°51.379 6.1 328 15.4 100420 47
2010-06-09 06:59:15 51°21.079 2°51.373 6.3 328 15.4 100420 46
2010-06-09 06:59:19 51°21.094 2°51.369 5.6 301 15.4 100420 46
2010-06-09 06:59:25 51°21.115 2°51.362 6 329 15.4 100420 43
2010-06-09 06:59:30 51°21.133 2°51.356 6.4 327 15.4 100420 43
2010-06-09 06:59:42 51°21.176 2°51.339 6 328 15.4 100410 45
2010-06-09 06:59:47 51°21.194 2°51.332 6.3 330 15.4 100420 46
2010-06-09 06:59:52 51°21.212 2°51.323 6.5 329 15.4 100420 46
2010-06-09 06:59:57 51°21.23 2°51.316 5.8 331 15.3 100420 47
2010-06-09 07:00:08 51°21.268 2°51.298 6 283 15.3 100420 45
2010-06-09 07:00:13 51°21.286 2°51.289 5.8 329 15.3 100420 45
2010-06-09 07:00:18 51°21.304 2°51.28 6.1 285 15.3 100420 46
2010-06-09 07:00:23 51°21.322 2°51.271 5.8 329 15.3 100420 46
2010-06-09 07:00:28 51°21.339 2°51.262 5.8 284 15.3 100420 47
2010-06-09 07:00:33 51°21.357 2°51.254 5.5 329 15.3 100420 47
2010-06-09 07:00:38 51°21.375 2°51.246 5.8 285 15.3 100420 45
2010-06-09 07:00:43 51°21.393 2°51.238 5.6 329 15.3 100420 45
2010-06-09 07:00:48 51°21.411 2°51.23 5.9 282 15.3 100430 44
2010-06-09 07:00:53 51°21.429 2°51.222 5.6 330 15.3 100430 44
2010-06-09 07:00:58 51°21.447 2°51.214 5.7 283 15.3 100420 47
2010-06-09 07:01:03 51°21.464 2°51.207 5.7 330 15.3 100420 47
2010-06-09 07:01:08 51°21.482 2°51.197 5.4 277 15.3 100420 45
2010-06-09 07:01:13 51°21.5 2°51.189 5.3 330 15.3 100420 45
2010-06-09 07:01:18 51°21.517 2°51.178 5.7 285 15.3 100420 44
2010-06-09 07:01:23 51°21.534 2°51.168 5.9 330 15.3 100420 44
2010-06-09 07:01:27 51°21.548 2°51.158 5.6 284 15.3 100430 46
2010-06-09 07:01:33 51°21.568 2°51.145 5.7 329 15.3 100430 46
2010-06-09 07:01:38 51°21.585 2°51.133 5.5 281 15.3 100420 44
2010-06-09 07:01:43 51°21.602 2°51.121 5.7 330 15.3 100420 44
2010-06-09 07:01:48 51°21.619 2°51.108 5.3 330 15.3 100420 45
2010-06-09 07:01:53 51°21.635 2°51.095 5.4 330 15.3 100420 45
2010-06-09 07:01:58 51°21.652 2°51.083 5.2 284 15.3 100430 44
2010-06-09 07:02:03 51°21.669 2°51.07 5.4 330 15.3 100430 44
2010-06-09 07:02:07 51°21.682 2°51.059 5.5 282 15.3 100430 44
2010-06-09 07:02:13 51°21.702 2°51.044 5.3 330 15.3 100430 44
2010-06-09 07:02:18 51°21.719 2°51.031 5.8 283 15.3 100430 45
2010-06-09 07:02:23 51°21.735 2°51.019 5.6 331 15.3 100430 45
2010-06-09 07:02:27 51°21.749 2°51.009 5.8 285 15.3 100430 44
2010-06-09 07:02:33 51°21.769 2°50.996 6 331 15.3 100430 44
2010-06-09 07:02:38 51°21.786 2°50.984 5.9 281 15.3 100430 44
2010-06-09 07:02:43 51°21.803 2°50.973 5.8 331 15.3 100430 44
2010-06-09 07:02:47 51°21.817 2°50.964 5.3 285 15.3 100430 45
2010-06-09 07:02:53 51°21.837 2°50.952 5.8 330 15.3 100430 45
2010-06-09 07:02:58 51°21.855 2°50.942 5.9 284 15.3 100420 44
2010-06-09 07:03:03 51°21.872 2°50.933 6 330 15.3 100420 44
2010-06-09 07:03:07 51°21.886 2°50.925 5.9 284 15.2 100430 46
2010-06-09 07:03:13 51°21.907 2°50.914 6.1 330 15.2 100430 46
2010-06-09 07:03:18 51°21.924 2°50.907 6 286 15.2 100420 44
2010-06-09 07:03:23 51°21.942 2°50.898 6.1 330 15.2 100420 44
2010-06-09 07:03:28 51°21.959 2°50.891 5.5 284 15.2 100420 45
2010-06-09 07:03:33 51°21.977 2°50.883 5.7 332 15.2 100420 45
2010-06-09 07:03:38 51°21.995 2°50.877 5.3 284 15.2 100420 44
2010-06-09 07:03:43 51°22.013 2°50.869 5.4 332 15.2 100420 44
2010-06-09 07:03:48 51°22.03 2°50.862 5.4 332 15.2 100420 46
2010-06-09 07:03:53 51°22.048 2°50.856 5.5 331 15.2 100420 46
2010-06-09 07:03:58 51°22.066 2°50.849 5.4 283 15.2 100420 46
2010-06-09 07:04:03 51°22.083 2°50.841 5.9 331 15.2 100420 46
2010-06-09 07:04:07 51°22.098 2°50.835 5.2 280 15.2 100430 46
2010-06-09 07:04:13 51°22.119 2°50.827 5.2 331 15.2 100430 46
2010-06-09 07:04:18 51°22.136 2°50.82 5.2 285 15.2 100430 47
2010-06-09 07:04:23 51°22.154 2°50.812 5.1 331 15.2 100430 47
2010-06-09 07:04:28 51°22.171 2°50.806 5.1 285 15.2 100420 46
2010-06-09 07:04:33 51°22.189 2°50.8 5.6 331 15.2 100420 46
2010-06-09 07:04:38 51°22.207 2°50.793 5.4 280 15.2 100430 44
2010-06-09 07:04:43 51°22.225 2°50.787 5.4 331 15.2 100430 44
2010-06-09 07:04:48 51°22.242 2°50.781 5.6 284 15.2 100420 43
2010-06-09 07:04:53 51°22.26 2°50.775 5.3 332 15.2 100420 43
2010-06-09 07:04:58 51°22.278 2°50.768 5.6 277 15.2 100430 44
2010-06-09 07:05:03 51°22.296 2°50.762 5.5 332 15.2 100430 44
2010-06-09 07:05:08 51°22.314 2°50.756 5.5 280 15.2 100430 44
2010-06-09 07:05:13 51°22.332 2°50.75 5.3 332 15.2 100430 44
2010-06-09 07:05:18 51°22.35 2°50.743 4.9 285 15.2 100430 45
2010-06-09 07:05:23 51°22.367 2°50.737 5.4 332 15.2 100430 45
2010-06-09 07:05:28 51°22.385 2°50.73 5.1 283 15.2 100420 47
2010-06-09 07:05:33 51°22.403 2°50.724 5.7 332 15.2 100420 47
2010-06-09 07:05:38 51°22.421 2°50.718 5 284 15.2 100430 46
2010-06-09 07:05:43 51°22.438 2°50.711 4.9 331 15.2 100430 46
2010-06-09 07:05:47 51°22.452 2°50.706 5.6 333 15.2 100430 44
2010-06-09 07:05:53 51°22.474 2°50.698 5.3 333 15.2 100430 44
2010-06-09 07:05:58 51°22.491 2°50.692 5.2 279 15.2 100420 44
2010-06-09 07:06:03 51°22.509 2°50.685 5.4 332 15.2 100420 44
2010-06-09 07:06:08 51°22.527 2°50.679 5.3 284 15.2 100430 47
2010-06-09 07:06:13 51°22.545 2°50.672 5.3 333 15.2 100430 47
2010-06-09 07:06:18 51°22.563 2°50.667 5.2 282 15.2 100430 45
2010-06-09 07:06:23 51°22.581 2°50.661 5.5 333 15.2 100430 45
2010-06-09 07:06:28 51°22.599 2°50.656 5.4 278 15.2 100430 45
2010-06-09 07:06:33 51°22.617 2°50.651 5.3 334 15.2 100430 45
2010-06-09 07:06:38 51°22.635 2°50.646 5.6 279 15.2 100430 44
2010-06-09 07:06:43 51°22.653 2°50.641 5.5 335 15.2 100430 44
2010-06-09 07:06:47 51°22.667 2°50.637 5.2 334 15.2 100430 44
2010-06-09 07:06:53 51°22.689 2°50.63 5.7 335 15.2 100430 44
2010-06-09 07:06:58 51°22.707 2°50.624 5.1 279 15.2 100430 44
2010-06-09 07:07:03 51°22.725 2°50.619 5 334 15.2 100430 44
2010-06-09 07:07:08 51°22.743 2°50.613 5.4 285 15.2 100430 45
2010-06-09 07:07:13 51°22.761 2°50.608 5.2 334 15.2 100430 45
2010-06-09 07:07:18 51°22.779 2°50.602 5.3 282 15.2 100440 47
2010-06-09 07:07:23 51°22.797 2°50.597 5.1 334 15.2 100440 47
2010-06-09 07:07:28 51°22.815 2°50.591 5.5 278 15.2 100430 46
2010-06-09 07:07:33 51°22.832 2°50.586 5 334 15.2 100430 46
2010-06-09 07:07:38 51°22.85 2°50.58 5.6 282 15.2 100440 44
2010-06-09 07:07:43 51°22.868 2°50.575 5.2 334 15.2 100440 44
2010-06-09 07:07:48 51°22.886 2°50.569 5.3 335 15.2 100420 44
2010-06-09 07:07:53 51°22.904 2°50.564 5.6 335 15.2 100420 44
2010-06-09 07:07:58 51°22.921 2°50.558 5.2 285 15.2 100430 44
2010-06-09 07:08:03 51°22.939 2°50.553 5.4 336 15.2 100430 44
2010-06-09 07:08:08 51°22.957 2°50.547 5.5 282 15.2 100430 46
2010-06-09 07:08:13 51°22.975 2°50.542 5.3 336 15.2 100430 46
2010-06-09 07:08:18 51°22.993 2°50.537 5.1 285 15.2 100430 44
2010-06-09 07:08:23 51°23.01 2°50.531 5.1 336 15.2 100430 44
2010-06-09 07:08:27 51°23.025 2°50.527 5.7 283 15.2 100430 45
2010-06-09 07:08:33 51°23.046 2°50.52 3.3 335 15.2 100430 45
2010-06-09 07:08:38 51°23.064 2°50.515 5.5 285 15.2 100430 44
2010-06-09 07:08:43 51°23.082 2°50.509 5.5 335 15.2 100430 44
2010-06-09 07:08:48 51°23.1 2°50.503 5.6 334 15.2 100430 44
2010-06-09 07:08:53 51°23.117 2°50.497 5.4 335 15.2 100430 44
2010-06-09 07:08:58 51°23.135 2°50.491 5.5 277 15.2 100430 45
2010-06-09 07:09:03 51°23.153 2°50.485 5.3 334 15.2 100430 45
2010-06-09 07:09:08 51°23.171 2°50.479 5 285 15.2 100430 47
2010-06-09 07:09:13 51°23.188 2°50.473 5.2 334 15.2 100430 47
2010-06-09 07:09:18 51°23.206 2°50.466 5.1 281 15.2 100430 47
2010-06-09 07:09:23 51°23.224 2°50.46 5.1 334 15.2 100430 47
2010-06-09 07:09:27 51°23.238 2°50.455 5.2 284 15.2 100430 46
2010-06-09 07:09:33 51°23.259 2°50.448 5.1 334 15.2 100430 46
2010-06-09 07:09:38 51°23.277 2°50.442 4.8 284 15.2 100430 45
2010-06-09 07:09:43 51°23.295 2°50.436 5 335 15.2 100430 45
2010-06-09 07:09:48 51°23.312 2°50.43 5.5 333 15.2 100430 47
2010-06-09 07:09:53 51°23.33 2°50.424 5.2 334 15.2 100430 47
2010-06-09 07:09:58 51°23.348 2°50.417 5.1 285 15.2 100440 46
2010-06-09 07:10:03 51°23.366 2°50.411 5.3 334 15.2 100440 46
2010-06-09 07:10:07 51°23.38 2°50.406 5 282 15.2 100430 46
2010-06-09 07:10:13 51°23.401 2°50.399 5.1 334 15.2 100430 46
2010-06-09 07:10:18 51°23.419 2°50.393 5 281 15.2 100430 46
2010-06-09 07:10:23 51°23.437 2°50.386 4.8 335 15.2 100430 46
2010-06-09 07:10:28 51°23.455 2°50.38 5.3 279 15.2 100430 44
2010-06-09 07:10:33 51°23.472 2°50.373 5.3 335 15.2 100430 44
2010-06-09 07:10:38 51°23.49 2°50.367 5.1 284 15.2 100430 44
2010-06-09 07:10:43 51°23.508 2°50.361 5.4 334 15.2 100430 44
2010-06-09 07:10:48 51°23.526 2°50.355 4.9 335 15.2 100430 46
2010-06-09 07:10:53 51°23.544 2°50.348 4.8 334 15.2 100430 46
2010-06-09 07:10:58 51°23.561 2°50.342 5.1 284 15.2 100430 45
2010-06-09 07:11:03 51°23.579 2°50.335 5.3 334 15.2 100430 45
2010-06-09 07:11:07 51°23.593 2°50.33 5.2 280 15.2 100430 44
2010-06-09 07:11:13 51°23.615 2°50.322 5.3 334 15.2 100430 44
2010-06-09 07:11:18 51°23.633 2°50.316 5.4 283 15.2 100440 44
2010-06-09 07:11:23 51°23.65 2°50.309 5.1 334 15.2 100440 44
2010-06-09 07:11:28 51°23.668 2°50.303 5.5 284 15.2 100430 44
2010-06-09 07:11:33 51°23.686 2°50.296 5.7 334 15.2 100430 44
2010-06-09 07:11:38 51°23.704 2°50.29 5.4 283 15.1 100430 44
2010-06-09 07:11:43 51°23.722 2°50.283 5.4 333 15.1 100430 44
2010-06-09 07:11:48 51°23.74 2°50.277 5.6 -999 15.2 100430 44
2010-06-09 07:11:53 51°23.758 2°50.27 5.4 333 15.2 100430 44
2010-06-09 07:11:58 51°23.776 2°50.263 5.5 278 15.1 100430 47
2010-06-09 07:12:03 51°23.794 2°50.257 5.7 333 15.1 100430 47
2010-06-09 07:12:07 51°23.808 2°50.252 5.5 278 15.1 100440 46
2010-06-09 07:12:13 51°23.83 2°50.244 5.6 333 15.1 100440 46
2010-06-09 07:12:18 51°23.848 2°50.237 5.6 280 15.1 100430 47
2010-06-09 07:12:23 51°23.866 2°50.231 5.4 332 15.1 100430 47
2010-06-09 07:12:27 51°23.88 2°50.226 5.9 280 15.2 100430 47
2010-06-09 07:12:33 51°23.902 2°50.218 6.2 332 15.2 100430 47
2010-06-09 07:12:38 51°23.92 2°50.211 5.7 279 15.1 100430 45
2010-06-09 07:12:43 51°23.938 2°50.205 3.3 332 15.1 100430 45
2010-06-09 07:12:48 51°23.956 2°50.199 5.6 332 15.1 100440 44
2010-06-09 07:12:53 51°23.974 2°50.192 5.9 332 15.1 100440 44
2010-06-09 07:12:58 51°23.992 2°50.186 5.4 283 15.1 100430 46
2010-06-09 07:13:03 51°24.01 2°50.18 5.7 332 15.1 100430 46
2010-06-09 07:13:08 51°24.028 2°50.173 5.8 277 15.1 100430 47
2010-06-09 07:13:13 51°24.046 2°50.167 5.3 332 15.1 100430 47
2010-06-09 07:13:18 51°24.064 2°50.16 5.8 280 15.1 100430 44
2010-06-09 07:13:23 51°24.082 2°50.154 5.7 331 15.1 100430 44
2010-06-09 07:13:28 51°24.1 2°50.148 5.8 278 15.1 100440 44
2010-06-09 07:13:33 51°24.118 2°50.142 5.7 332 15.1 100440 44
2010-06-09 07:13:38 51°24.136 2°50.135 5.6 277 15.1 100430 47
2010-06-09 07:13:43 51°24.154 2°50.129 5.9 332 15.2 100430 44
2010-06-09 07:13:48 51°24.172 2°50.123 5.8 331 15.2 100430 44
2010-06-09 07:13:53 51°24.19 2°50.117 5.6 331 15.2 100430 44
2010-06-09 07:13:58 51°24.208 2°50.111 5.9 284 15.2 100430 44
2010-06-09 07:14:03 51°24.226 2°50.104 5.8 332 15.2 100430 44
2010-06-09 07:14:07 51°24.24 2°50.1 5.2 283 15.2 100430 44
2010-06-09 07:14:13 51°24.261 2°50.091 5.4 332 15.2 100430 44
2010-06-09 07:14:18 51°24.279 2°50.085 5.6 286 15.2 100430 44
2010-06-09 07:14:23 51°24.297 2°50.079 5.9 332 15.2 100430 44
2010-06-09 07:14:28 51°24.315 2°50.072 5.6 284 15.2 100430 46
2010-06-09 07:14:33 51°24.333 2°50.066 5.2 332 15.2 100430 46
2010-06-09 07:14:38 51°24.351 2°50.059 5.5 283 15.2 100440 45
2010-06-09 07:14:43 51°24.369 2°50.053 5.6 332 15.2 100440 45
2010-06-09 07:14:47 51°24.383 2°50.047 5.5 332 15.2 100430 47
2010-06-09 07:14:53 51°24.405 2°50.04 5.4 332 15.2 100430 47
2010-06-09 07:14:58 51°24.423 2°50.033 5.8 283 15.2 100430 45
2010-06-09 07:15:03 51°24.441 2°50.027 5.4 331 15.2 100430 45
2010-06-09 07:15:08 51°24.458 2°50.02 5.9 282 15.2 100430 46
2010-06-09 07:15:13 51°24.476 2°50.013 5.5 331 15.2 100430 46
2010-06-09 07:15:18 51°24.494 2°50.006 5.3 285 15.2 100440 47
2010-06-09 07:15:23 51°24.512 2°49.999 5.5 332 15.2 100440 47
2010-06-09 07:15:28 51°24.53 2°49.993 5.2 280 15.2 100440 46
2010-06-09 07:15:33 51°24.548 2°49.986 5.3 331 15.2 100440 46
2010-06-09 07:15:38 51°24.566 2°49.98 5.8 283 15.2 100430 44
2010-06-09 07:15:43 51°24.583 2°49.973 5.4 332 15.2 100430 44
2010-06-09 07:15:47 51°24.598 2°49.968 5.5 332 15.2 100440 45
2010-06-09 07:15:53 51°24.619 2°49.96 5 332 15.2 100440 45
2010-06-09 07:15:58 51°24.637 2°49.953 5 284 15.2 100430 44
2010-06-09 07:16:03 51°24.655 2°49.946 5.4 332 15.2 100430 44
2010-06-09 07:16:08 51°24.673 2°49.939 5.1 284 15.2 100430 44
2010-06-09 07:16:13 51°24.691 2°49.933 5.5 332 15.2 100430 44
2010-06-09 07:16:18 51°24.709 2°49.926 5.2 284 15.2 100440 46
2010-06-09 07:16:23 51°24.726 2°49.919 5.4 333 15.2 100440 46
2010-06-09 07:16:28 51°24.744 2°49.912 5.1 284 15.2 100430 46
2010-06-09 07:16:33 51°24.762 2°49.906 5.1 333 15.2 100430 46
2010-06-09 07:16:38 51°24.78 2°49.899 5.7 279 15.2 100430 44
2010-06-09 07:16:43 51°24.798 2°49.892 5.2 332 15.2 100430 44
2010-06-09 07:16:48 51°24.816 2°49.886 5.3 332 15.2 100440 44
2010-06-09 07:16:53 51°24.834 2°49.879 4.9 333 15.2 100440 44
2010-06-09 07:16:58 51°24.852 2°49.872 5.7 283 15.2 100430 45
2010-06-09 07:17:03 51°24.87 2°49.866 5.3 333 15.2 100430 45
2010-06-09 07:17:07 51°24.884 2°49.86 5.5 278 15.2 100430 44
2010-06-09 07:17:13 51°24.906 2°49.852 5.6 333 15.2 100430 44
2010-06-09 07:17:18 51°24.924 2°49.845 5.1 280 15.2 100430 44
2010-06-09 07:17:23 51°24.942 2°49.839 5.6 333 15.2 100430 44
2010-06-09 07:17:28 51°24.96 2°49.832 5.3 279 15.2 100430 44
2010-06-09 07:17:33 51°24.977 2°49.825 5.4 332 15.2 100430 44
2010-06-09 07:17:38 51°24.995 2°49.818 5.4 283 15.2 100440 45
2010-06-09 07:17:43 51°25.013 2°49.812 5.1 332 15.2 100440 45
2010-06-09 07:17:48 51°25.031 2°49.805 5.8 332 15.2 100430 44
2010-06-09 07:17:53 51°25.049 2°49.798 5.5 331 15.2 100430 44
2010-06-09 07:17:58 51°25.067 2°49.791 5.5 282 15.2 100440 46
2010-06-09 07:18:03 51°25.085 2°49.784 5.4 332 15.2 100440 46
2010-06-09 07:18:07 51°25.1 2°49.778 5.5 278 15.2 100430 44
2010-06-09 07:18:13 51°25.121 2°49.77 5.3 332 15.2 100430 44
2010-06-09 07:18:18 51°25.139 2°49.763 5.4 283 15.2 100430 46
2010-06-09 07:18:23 51°25.157 2°49.756 5.5 332 15.2 100430 46
2010-06-09 07:18:28 51°25.175 2°49.75 5.2 280 15.2 100430 47
2010-06-09 07:18:33 51°25.193 2°49.743 5.8 332 15.2 100430 47
2010-06-09 07:18:38 51°25.211 2°49.736 5.1 284 15.2 100440 45
2010-06-09 07:18:43 51°25.229 2°49.73 5.6 332 15.2 100440 45
2010-06-09 07:18:48 51°25.248 2°49.723 5.8 -999 15.1 100430 46
2010-06-09 07:18:53 51°25.266 2°49.716 5.5 332 15.1 100430 46
2010-06-09 07:18:58 51°25.284 2°49.709 5.2 278 15.2 100430 46
2010-06-09 07:19:03 51°25.302 2°49.703 5.2 331 15.2 100430 46
2010-06-09 07:19:08 51°25.32 2°49.696 5.2 278 15.2 100430 46
2010-06-09 07:19:13 51°25.338 2°49.689 5.6 332 15.2 100430 46
2010-06-09 07:19:18 51°25.356 2°49.682 5 280 15.2 100430 44
2010-06-09 07:19:23 51°25.374 2°49.676 5.5 332 15.2 100430 44
2010-06-09 07:19:27 51°25.389 2°49.67 5.5 283 15.2 100440 46
2010-06-09 07:19:33 51°25.411 2°49.662 5.3 332 15.2 100440 46
2010-06-09 07:19:38 51°25.429 2°49.655 5.5 283 15.2 100430 44
2010-06-09 07:19:43 51°25.447 2°49.648 5.1 332 15.2 100430 44
2010-06-09 07:19:48 51°25.466 2°49.641 5.3 333 15.2 100440 45
2010-06-09 07:19:53 51°25.484 2°49.634 5.8 333 15.2 100440 45
2010-06-09 07:19:58 51°25.502 2°49.627 5.3 281 15.2 100440 47
2010-06-09 07:20:03 51°25.52 2°49.62 5.3 333 15.2 100440 47
2010-06-09 07:20:07 51°25.535 2°49.615 5.2 284 15.2 100430 46
2010-06-09 07:20:13 51°25.557 2°49.607 5.1 333 15.2 100430 46
2010-06-09 07:20:18 51°25.575 2°49.6 5.2 278 15.2 100430 45
2010-06-09 07:20:23 51°25.593 2°49.594 5.1 334 15.2 100430 45
2010-06-09 07:20:28 51°25.612 2°49.587 5.3 283 15.2 100440 46
2010-06-09 07:20:33 51°25.63 2°49.58 5.3 334 15.2 100440 46
2010-06-09 07:20:38 51°25.648 2°49.573 5.1 279 15.2 100430 47
2010-06-09 07:20:43 51°25.667 2°49.566 5.3 334 15.2 100430 47
2010-06-09 07:20:48 51°25.685 2°49.56 5.3 334 15.2 100430 45
2010-06-09 07:20:53 51°25.703 2°49.553 5.5 333 15.2 100430 45
2010-06-09 07:20:58 51°25.722 2°49.546 5.3 283 15.2 100430 45
2010-06-09 07:21:03 51°25.74 2°49.54 5.3 334 15.2 100430 45
2010-06-09 07:21:07 51°25.755 2°49.535 5.7 284 15.2 100430 46
2010-06-09 07:21:13 51°25.777 2°49.527 5.4 334 15.2 100430 46
2010-06-09 07:21:18 51°25.795 2°49.52 5.4 278 15.2 100430 45
2010-06-09 07:21:23 51°25.814 2°49.513 5.1 334 15.2 100430 45
2010-06-09 07:21:28 51°25.832 2°49.506 5.2 285 15.2 100430 45
2010-06-09 07:21:33 51°25.851 2°49.5 5.6 334 15.2 100430 45
2010-06-09 07:21:38 51°25.869 2°49.493 5.6 284 15.2 100430 44
2010-06-09 07:21:43 51°25.888 2°49.487 5.2 335 15.2 100430 44
2010-06-09 07:21:48 51°25.906 2°49.48 5.4 334 15.2 100430 44
2010-06-09 07:21:53 51°25.924 2°49.473 5.6 334 15.2 100430 44
2010-06-09 07:21:58 51°25.943 2°49.467 5.9 284 15.2 100430 47
2010-06-09 07:22:03 51°25.961 2°49.46 5.9 334 15.2 100430 47
2010-06-09 07:22:07 51°25.976 2°49.455 5.5 280 15.2 100430 45
2010-06-09 07:22:13 51°25.998 2°49.447 5.3 334 15.2 100430 45
2010-06-09 07:22:18 51°26.016 2°49.44 5.4 282 15.2 100430 46
2010-06-09 07:22:23 51°26.034 2°49.433 5.6 334 15.2 100430 46
2010-06-09 07:22:28 51°26.053 2°49.427 5.5 284 15.2 100430 45
2010-06-09 07:22:33 51°26.071 2°49.42 5.5 335 15.2 100430 45
2010-06-09 07:22:38 51°26.09 2°49.413 5.3 283 15.2 100430 45
2010-06-09 07:22:43 51°26.108 2°49.406 5 335 15.2 100430 45
2010-06-09 07:22:48 51°26.127 2°49.399 5.2 335 15.2 100430 44
2010-06-09 07:22:53 51°26.145 2°49.392 5.2 335 15.2 100430 44
2010-06-09 07:22:58 51°26.163 2°49.385 5.1 283 15.2 100430 46
2010-06-09 07:23:03 51°26.182 2°49.378 5.2 335 15.2 100430 46
2010-06-09 07:23:07 51°26.196 2°49.373 5.4 281 15.2 100440 44
2010-06-09 07:23:13 51°26.218 2°49.365 5.2 336 15.2 100440 44
2010-06-09 07:23:18 51°26.237 2°49.358 5.3 279 15.2 100430 47
2010-06-09 07:23:23 51°26.255 2°49.352 5.4 336 15.2 100430 47
2010-06-09 07:23:27 51°26.27 2°49.347 5.4 281 15.2 100440 44
2010-06-09 07:23:34 51°26.295 2°49.338 5.6 335 15.2 100440 44
2010-06-09 07:23:38 51°26.31 2°49.333 5.5 279 15.2 100430 45
2010-06-09 07:23:43 51°26.329 2°49.326 5 336 15.2 100430 45
2010-06-09 07:23:47 51°26.343 2°49.321 5.3 336 15.2 100430 45
2010-06-09 07:23:53 51°26.366 2°49.313 5.3 336 15.2 100430 45
2010-06-09 07:23:58 51°26.384 2°49.307 5.3 278 15.2 100430 47
2010-06-09 07:24:03 51°26.402 2°49.302 5.5 336 15.2 100430 47
2010-06-09 07:24:08 51°26.421 2°49.296 4.8 283 15.2 100440 45
2010-06-09 07:24:13 51°26.439 2°49.29 5 338 15.2 100440 45
2010-06-09 07:24:18 51°26.457 2°49.284 5.3 284 15.2 100430 44
2010-06-09 07:24:23 51°26.475 2°49.277 4.9 337 15.2 100430 44
2010-06-09 07:24:28 51°26.493 2°49.271 4.9 284 15.2 100440 47
2010-06-09 07:24:33 51°26.511 2°49.265 5.4 337 15.2 100440 47
2010-06-09 07:24:38 51°26.529 2°49.258 5 278 15.2 100430 47
2010-06-09 07:24:43 51°26.547 2°49.252 5.3 338 15.2 100430 47
2010-06-09 07:24:48 51°26.565 2°49.245 5.1 337 15.2 100430 47
2010-06-09 07:24:53 51°26.583 2°49.239 5.3 338 15.2 100430 47
2010-06-09 07:24:58 51°26.601 2°49.232 5.1 285 15.2 100430 44
2010-06-09 07:25:03 51°26.619 2°49.225 4.8 338 15.2 100430 44
2010-06-09 07:25:08 51°26.637 2°49.219 5.3 278 15.2 100440 45
2010-06-09 07:25:13 51°26.654 2°49.213 4.9 338 15.2 100440 45
2010-06-09 07:25:18 51°26.672 2°49.206 5.2 285 15.2 100440 44
2010-06-09 07:25:23 51°26.69 2°49.199 5.3 336 15.2 100440 44
2010-06-09 07:25:28 51°26.708 2°49.192 5.3 283 15.2 100440 44
2010-06-09 07:25:33 51°26.726 2°49.186 4.8 337 15.2 100440 44
2010-06-09 07:25:38 51°26.744 2°49.179 5 285 15.2 100430 45
2010-06-09 07:25:43 51°26.762 2°49.173 5.2 337 15.2 100430 45
2010-06-09 07:25:48 51°26.78 2°49.167 4.9 337 15.2 100430 44
2010-06-09 07:25:53 51°26.798 2°49.16 4.9 336 15.2 100430 44
2010-06-09 07:25:58 51°26.815 2°49.153 5.2 283 15.2 100430 47
2010-06-09 07:26:03 51°26.833 2°49.147 4.9 337 15.2 100430 47
2010-06-09 07:26:08 51°26.851 2°49.14 5.2 284 15.2 100430 43
2010-06-09 07:26:13 51°26.869 2°49.133 5 336 15.2 100430 43
2010-06-09 07:26:18 51°26.887 2°49.126 4.8 285 15.2 100440 45
2010-06-09 07:26:23 51°26.905 2°49.12 5.4 336 15.2 100440 45
2010-06-09 07:26:28 51°26.923 2°49.113 4.7 278 15.2 100440 47
2010-06-09 07:26:33 51°26.941 2°49.107 5.1 337 15.2 100440 47
2010-06-09 07:26:38 51°26.959 2°49.1 5 282 15.2 100430 45
2010-06-09 07:26:43 51°26.977 2°49.094 5.1 337 15.2 100430 45
2010-06-09 07:26:48 51°26.995 2°49.086 4.6 335 15.2 100440 45
2010-06-09 07:26:53 51°27.013 2°49.08 5.3 336 15.2 100440 45
2010-06-09 07:26:58 51°27.031 2°49.073 5.3 284 15.2 100440 47
2010-06-09 07:27:03 51°27.049 2°49.067 5.4 336 15.2 100440 47
2010-06-09 07:27:08 51°27.067 2°49.06 4.8 278 15.2 100430 47
2010-06-09 07:27:13 51°27.085 2°49.054 5.5 336 15.2 100430 47
2010-06-09 07:27:18 51°27.104 2°49.047 4.9 284 15.2 100440 46
2010-06-09 07:27:23 51°27.122 2°49.041 5.1 336 15.2 100440 46
2010-06-09 07:27:28 51°27.14 2°49.034 5 284 15.2 100430 45
2010-06-09 07:27:33 51°27.158 2°49.028 5 336 15.2 100430 45
2010-06-09 07:27:38 51°27.176 2°49.021 5.1 283 15.1 100440 44
2010-06-09 07:27:43 51°27.194 2°49.015 4.9 336 15.1 100440 44
2010-06-09 07:27:48 51°27.212 2°49.008 5.2 283 15.1 100440 44
2010-06-09 07:27:53 51°27.23 2°49.002 5.2 337 15.1 100440 44
2010-06-09 07:27:58 51°27.248 2°48.995 4.9 284 15.1 100440 45
2010-06-09 07:28:03 51°27.267 2°48.988 5.3 337 15.1 100440 45
2010-06-09 07:28:08 51°27.285 2°48.982 5 284 15.1 100440 46
2010-06-09 07:28:13 51°27.303 2°48.975 4.8 336 15.1 100440 46
2010-06-09 07:28:18 51°27.321 2°48.968 5.4 277 15.1 100430 45
2010-06-09 07:28:23 51°27.339 2°48.961 5 336 15.1 100430 45
2010-06-09 07:28:28 51°27.357 2°48.954 4.9 283 15.1 100440 46
2010-06-09 07:28:33 51°27.376 2°48.947 4.8 336 15.1 100440 46
2010-06-09 07:28:38 51°27.394 2°48.94 5.4 278 15.1 100440 44
2010-06-09 07:28:43 51°27.412 2°48.933 4.8 336 15.1 100440 44
2010-06-09 07:28:47 51°27.427 2°48.928 5.2 336 15.1 100430 44
2010-06-09 07:28:53 51°27.448 2°48.92 5.1 336 15.1 100430 44
2010-06-09 07:28:58 51°27.466 2°48.913 5.4 279 15.1 100430 46
2010-06-09 07:29:03 51°27.484 2°48.906 4.9 335 15.1 100430 46
2010-06-09 07:29:08 51°27.502 2°48.899 5.1 284 15.1 100440 45
2010-06-09 07:29:13 51°27.52 2°48.892 5 334 15.1 100440 45
2010-06-09 07:29:18 51°27.539 2°48.885 5.3 278 15.1 100430 44
2010-06-09 07:29:23 51°27.557 2°48.879 5.1 334 15.1 100430 44
2010-06-09 07:29:28 51°27.575 2°48.872 5.2 284 15.1 100420 45
2010-06-09 07:29:33 51°27.593 2°48.865 5 334 15.1 100420 45
2010-06-09 07:29:38 51°27.611 2°48.859 4.9 284 15.1 100440 44
2010-06-09 07:29:43 51°27.629 2°48.853 5.1 334 15.1 100440 44
2010-06-09 07:29:48 51°27.647 2°48.846 4.7 335 15.1 100430 45
2010-06-09 07:29:53 51°27.666 2°48.839 5.3 334 15.1 100430 45
2010-06-09 07:29:58 51°27.684 2°48.833 4.9 279 15.1 100430 47
2010-06-09 07:30:03 51°27.702 2°48.826 5.3 334 15.1 100430 47
2010-06-09 07:30:08 51°27.72 2°48.819 5.3 284 15.1 100430 47
2010-06-09 07:30:13 51°27.738 2°48.812 4.9 333 15.1 100430 47
2010-06-09 07:30:18 51°27.757 2°48.806 4.8 285 15.1 100430 45
2010-06-09 07:30:23 51°27.775 2°48.799 4.8 333 15.1 100430 45
2010-06-09 07:30:27 51°27.789 2°48.794 4.9 284 15.1 100440 44
2010-06-09 07:30:33 51°27.81 2°48.786 5.5 333 15.1 100440 44
2010-06-09 07:30:38 51°27.829 2°48.779 4.7 283 15.1 100440 45
2010-06-09 07:30:43 51°27.847 2°48.773 5.1 333 15.1 100440 45
2010-06-09 07:30:48 51°27.865 2°48.766 5 333 15.1 100430 47
2010-06-09 07:30:53 51°27.884 2°48.759 5.3 333 15.1 100430 47
2010-06-09 07:30:58 51°27.902 2°48.753 5 278 15.1 100430 47
2010-06-09 07:31:03 51°27.92 2°48.746 5.3 333 15.1 100430 47
2010-06-09 07:31:07 51°27.935 2°48.741 4.8 278 15.1 100440 46
2010-06-09 07:31:13 51°27.957 2°48.733 5.2 333 15.1 100440 46
2010-06-09 07:31:18 51°27.976 2°48.726 5.1 285 15.1 100440 46
2010-06-09 07:31:23 51°27.994 2°48.719 5 332 15.1 100440 46
2010-06-09 07:31:28 51°28.013 2°48.712 4.9 283 15 100440 44
2010-06-09 07:31:33 51°28.031 2°48.705 4.8 331 15 100440 44
2010-06-09 07:31:38 51°28.05 2°48.699 5.1 282 15.1 100440 47
2010-06-09 07:31:43 51°28.068 2°48.692 5.4 332 15.1 100430 46
2010-06-09 07:31:48 51°28.086 2°48.686 4.9 331 15.1 100430 46
2010-06-09 07:31:53 51°28.104 2°48.68 5.1 333 15.1 100430 46
2010-06-09 07:31:58 51°28.122 2°48.673 4.6 284 15.1 100440 45
2010-06-09 07:32:03 51°28.14 2°48.667 5.1 333 15.1 100440 45
2010-06-09 07:32:07 51°28.155 2°48.662 5 284 15.1 100430 44
2010-06-09 07:32:13 51°28.178 2°48.654 4.7 331 15.1 100430 44
2010-06-09 07:32:18 51°28.196 2°48.648 5.5 280 15.1 100440 45
2010-06-09 07:32:23 51°28.214 2°48.642 5.2 332 15.1 100440 45
2010-06-09 07:32:28 51°28.233 2°48.635 4.8 282 15.1 100440 45
2010-06-09 07:32:33 51°28.251 2°48.629 5.3 334 15.1 100440 45
2010-06-09 07:32:38 51°28.269 2°48.622 4.5 284 15.1 100440 46
2010-06-09 07:32:43 51°28.288 2°48.616 4.9 333 15.1 100440 46
2010-06-09 07:32:47 51°28.302 2°48.611 5.3 333 15.1 100430 45
2010-06-09 07:32:53 51°28.324 2°48.604 5 333 15.1 100430 45
2010-06-09 07:32:58 51°28.343 2°48.597 4.7 283 15.1 100440 47
2010-06-09 07:33:03 51°28.361 2°48.591 4.9 334 15.1 100440 47
2010-06-09 07:33:08 51°28.38 2°48.585 5.3 284 15.1 100440 45
2010-06-09 07:33:13 51°28.398 2°48.578 5 334 15.1 100440 45
2010-06-09 07:33:18 51°28.417 2°48.572 4.9 278 15.1 100440 46
2010-06-09 07:33:23 51°28.435 2°48.566 5.1 333 15.1 100440 46
2010-06-09 07:33:28 51°28.454 2°48.559 4.8 279 15.1 100440 45
2010-06-09 07:33:33 51°28.473 2°48.553 4.6 333 15.1 100440 45
2010-06-09 07:33:38 51°28.491 2°48.546 5 284 15.1 100430 47
2010-06-09 07:33:43 51°28.51 2°48.54 5.1 333 15.1 100430 47
2010-06-09 07:33:48 51°28.528 2°48.534 5 -999 15.1 100440 45
2010-06-09 07:33:53 51°28.546 2°48.528 5.3 333 15.1 100440 45
2010-06-09 07:33:58 51°28.565 2°48.522 5 283 15.2 100430 46
2010-06-09 07:34:03 51°28.583 2°48.515 5 333 15.2 100430 46
2010-06-09 07:34:08 51°28.602 2°48.509 4.8 281 15.1 100440 43
2010-06-09 07:34:13 51°28.62 2°48.503 5.1 332 15.1 100440 43
2010-06-09 07:34:18 51°28.639 2°48.497 4.9 283 15.1 100440 45
2010-06-09 07:34:23 51°28.658 2°48.49 5 332 15.1 100440 45
2010-06-09 07:34:27 51°28.673 2°48.485 5 285 15.1 100440 47
2010-06-09 07:34:33 51°28.695 2°48.478 4.8 331 15.1 100440 47
2010-06-09 07:34:38 51°28.714 2°48.471 5.4 284 15.1 100440 45
2010-06-09 07:34:43 51°28.733 2°48.465 5.1 331 15.1 100440 45
2010-06-09 07:34:48 51°28.752 2°48.459 5.5 331 15.1 100440 45
2010-06-09 07:34:53 51°28.77 2°48.453 4.8 331 15.1 100440 45
2010-06-09 07:34:58 51°28.789 2°48.447 5.4 284 15.1 100430 45
2010-06-09 07:35:03 51°28.808 2°48.441 5.3 331 15.1 100430 45
2010-06-09 07:35:07 51°28.823 2°48.436 5.3 279 15.2 100440 47
2010-06-09 07:35:13 51°28.845 2°48.429 5.1 331 15.2 100440 47
2010-06-09 07:35:18 51°28.864 2°48.422 5 283 15.2 100440 47
2010-06-09 07:35:23 51°28.883 2°48.416 4.9 331 15.2 100440 47